Weather History for KFMY - August, 2012

Change the Weather History Date:

Tuesday, August 21, 2012

  Actual Average Record
Temperature  
Mean Temperature 85 °F 83 °F  
Max Temperature 94 °F 92 °F 97 °F (2014)
Min Temperature 75 °F 75 °F 70 °F (1947)
Degree Days  
Heating Degree Days 0 0  
Month to date heating degree days 0 0  
Since 1 June heating degree days 0 0  
Since 1 July heating degree days 0 0  
Cooling Degree Days 20 18  
Month to date cooling degree days 415 378  
Year to date cooling degree days 2964 2533  
Since 1 June cooling degree days 1526 1467  
Growing Degree Days 33 (Base 50)    
Moisture  
Dew Point 73 °F    
Average Humidity 75    
Maximum Humidity 85    
Minimum Humidity 49    
Precipitation  
Precipitation 0.95 in 0.33 in 3.95 in (1981)
Month to date precipitation 5.19 6.77  
Year to date precipitation 32.31 37.70  
Sea Level Pressure  
Sea Level Pressure 30.04 in    
Wind  
Wind Speed 7 mph (SSE)    
Max Wind Speed 18 mph    
Max Gust Speed 25 mph    
Visibility 8 miles    
Events Rain , Thunderstorm    
T = Trace of Precipitation, MM = Missing Value Source: NWS Daily Summary

Daily Weather History Graph

Daily Weather History Graph

Search for Another Location

Airport or City:

Trip Planner

Search our weather history database for the weather conditions in past years. The results will help you decide how hot, cold, wet, or windy it might be!

Date:

Astronomy

Aug. 21, 2012 Rise Set
Actual Time 7:02 AM EDT 7:58 PM EDT
Civil Twilight 6:38 AM EDT 8:21 PM EDT
Nautical Twilight 6:10 AM EDT 8:50 PM EDT
Astronomical Twilight 5:41 AM EDT 9:18 PM EDT
Moon 10:58 AM EDT (8/21) 10:33 PM EDT (8/21)
Length of Visible Light 13h 43m
Length of Day
12h 55m
Waxing Crescent, 19% of the Moon is Illuminated
Aug 21
Waxing Crescent
Aug 24
First Quarter
Aug 31
Full
Sep 8
Last Quarter
Sep 15
New

Hourly Weather History & Observations

Time (EDT) Temp. Heat Index Dew Point Humidity Pressure Visibility Wind Dir Wind Speed Gust Speed Precip Events Conditions
12:53 AM 82.9 °F 90.2 °F 75.0 °F 77% 30.02 in 10.0 mi Calm Calm - N/A   Clear
1:53 AM 81.0 °F 86.7 °F 75.0 °F 82% 30.01 in 10.0 mi SE 3.5 mph - N/A   Clear
2:53 AM 82.0 °F 88.6 °F 75.0 °F 79% 30.00 in 10.0 mi SSE 4.6 mph - N/A   Clear
3:53 AM 80.1 °F 85.4 °F 75.9 °F 87% 29.98 in 10.0 mi NE 3.5 mph - N/A   Clear
4:53 AM 80.1 °F 85.4 °F 75.9 °F 87% 29.99 in 10.0 mi SE 3.5 mph - N/A   Clear
5:53 AM 80.1 °F 85.1 °F 75.0 °F 85% 30.01 in 10.0 mi South 4.6 mph - N/A   Clear
6:53 AM 80.1 °F 85.1 °F 75.0 °F 85% 30.04 in 10.0 mi SSE 4.6 mph - N/A   Clear
7:41 AM 78.8 °F - 73.4 °F 83% 30.05 in 2.0 mi South 10.4 mph 24.2 mph 0.06 in Rain Heavy Rain
7:53 AM 78.1 °F - 71.1 °F 79% 30.04 in 6.0 mi South 11.5 mph 20.7 mph 0.08 in Rain Light Rain
8:53 AM 79.0 °F - 72.0 °F 79% 30.02 in 10.0 mi South 4.6 mph - 0.00 in   Clear
9:53 AM 82.0 °F 87.4 °F 73.0 °F 74% 30.03 in 10.0 mi South 4.6 mph - N/A   Clear
10:53 AM 87.1 °F 95.4 °F 73.9 °F 65% 30.02 in 10.0 mi South 5.8 mph - N/A   Clear
11:53 AM 89.1 °F 96.0 °F 72.0 °F 57% 30.02 in 10.0 mi South 9.2 mph 18.4 mph N/A   Clear
12:53 PM 91.9 °F 98.4 °F 71.1 °F 50% 30.00 in 10.0 mi SSW 13.8 mph 19.6 mph N/A   Clear
1:53 PM 91.9 °F 97.4 °F 70.0 °F 48% 30.00 in 10.0 mi SSW 12.7 mph 20.7 mph N/A   Clear
2:53 PM 91.9 °F 98.4 °F 71.1 °F 50% 30.00 in 10.0 mi SSW 12.7 mph 19.6 mph N/A   Clear
3:53 PM 91.0 °F 98.2 °F 72.0 °F 53% 30.01 in 10.0 mi SW 12.7 mph 20.7 mph N/A   Clear
4:53 PM 91.0 °F 99.3 °F 73.0 °F 55% 30.00 in 10.0 mi SSW 11.5 mph - N/A   Partly Cloudy
5:53 PM 90.0 °F 97.9 °F 73.0 °F 57% 30.01 in 10.0 mi SSW 10.4 mph 20.7 mph N/A   Clear
6:53 PM 88.0 °F 97.5 °F 75.0 °F 65% 30.03 in 10.0 mi SW 8.1 mph - N/A   Scattered Clouds
7:29 PM 87.8 °F 97.6 °F 75.2 °F 66% 30.02 in 10.0 mi SSW 10.4 mph - N/A Thunderstorm Clear
7:53 PM 84.0 °F 94.8 °F 78.1 °F 82% 30.03 in 10.0 mi Calm Calm - 0.01 in Rain , Thunderstorm Light Rain
8:53 PM 79.0 °F - 69.1 °F 72% 30.06 in 3.0 mi NNW 6.9 mph - 0.00 in Thunderstorm Unknown
9:36 PM 77.0 °F - 69.8 °F 78% 30.07 in 10.0 mi NNE 4.6 mph - 0.00 in   Partly Cloudy
9:53 PM 77.0 °F - 69.1 °F 76% 30.07 in 10.0 mi NE 5.8 mph - 0.00 in Thunderstorm Partly Cloudy
10:20 PM 75.2 °F - 69.8 °F 83% 30.08 in 6.0 mi NNE 12.7 mph - 0.01 in Rain Heavy Rain
10:29 PM 75.2 °F - 71.6 °F 89% 30.09 in 9.0 mi NNE 10.4 mph - 0.02 in Rain Light Rain
10:53 PM 75.0 °F - 71.1 °F 87% 30.09 in 5.0 mi NNE 12.7 mph - 0.04 in Rain Heavy Rain
11:04 PM 75.2 °F - 71.6 °F 89% 30.09 in 10.0 mi NNE 6.9 mph - 0.01 in Rain , Thunderstorm Light Rain
11:16 PM 75.2 °F - 71.6 °F 89% 30.11 in 1.8 mi NNW 9.2 mph - 0.08 in Rain , Thunderstorm Heavy Rain
11:26 PM 75.2 °F - 71.6 °F 89% 30.10 in 1.0 mi NNE 9.2 mph - 0.40 in Rain , Thunderstorm Heavy Rain
11:41 PM 75.2 °F - 71.6 °F 89% 30.11 in 2.0 mi North 5.8 mph - 0.65 in Rain , Thunderstorm Heavy Thunderstorms and Rain
11:51 PM 75.2 °F - 71.6 °F 89% 30.10 in 5.0 mi NNE 5.8 mph - 0.68 in Rain , Thunderstorm Light Thunderstorms and Rain
11:53 PM 75.0 °F - 72.0 °F 90% 30.12 in 5.0 mi NE 4.6 mph - 0.68 in Rain , Thunderstorm Light Thunderstorms and Rain